[[{"header":{"parameterUnit":"m.s-1","parameterCategory":1,"la1":30.2991,"la2":30.254,"lo1":-89.0895,"lo2":-89.0444,"dy":0.0017,"dx":0.0017,"nx":28,"ny":28,"refTime":"2024-10-08T03:00:00:Z","depth":0,"parameterNumber":2,"parameterNumberName":"U-component_of_WINDS"},"data":[0,0,0,0,0,0,0,0,0,0,0,0,0,0,0,0,0,0,0,0,0,0,0,0,0,0,0,0,0,0,0,0,0,0,0,0,0,0,0,0,0,0,0,0,0,0,0,0,0,0,0,0,0,0,0,0,0,0,0.0023,0.0023,0,0.0041,0.0042,0.0042,0.0042,0.0042,0.0042,0.0042,0.0062,0.0063,0.0063,0,0,0,0,0,0,0,0,0,0,0,0,0,-0.0011,-0.0011,0.0023,0.0023,0.0023,0.0041,0.0042,0.0042,0.0042,0.0042,0.0042,0.0042,0.0062,0.0063,0.0063,0,0,0,0,0,0,0,0,0,0,0,0,0,0.0005,-0.001,0.0023,0.0026,0.0026,0.0041,0.0042,0.0042,0.0042,0.0042,0.0042,0.0041,0.0061,0.0062,0.0064,0.0078,0,0,0.0067,0.0068,0,0,0,0,0,0,0,0,0.0004,0.0006,0.0025,0.0025,0.0026,0.0039,0.0037,0.0054,0.0043,0.0036,0.0042,0.0041,0.0055,0.0056,0.0061,0.0078,0.0079,0.0067,0.0068,0.0068,0.0069,0,0,0,0,0,0,0,0.0003,0.0006,0.003,0.0025,0.0026,0.0026,0.0028,0.004,0.0047,0.0037,0.0037,0.0039,0.0055,0.006,0.0061,0.008,0.0067,0.0068,0.0069,0.0069,0.0111,0.0111,0,0,0,0,0,0,0.0001,0.0005,0.003,0.0031,0.0014,0.0027,0.0029,0.0035,0.0047,0.0049,0.0039,0.0039,0.0058,0.006,0.0062,0.0079,0.0068,0.0069,0.007,0.011,0.0111,0.0111,0,0,0,0,0,0,0.0,0.0003,0.0029,0.0018,0.0021,0.0028,0.0035,0.0036,0.004,0.0049,0.005,0.0043,0.0058,0.006,0.0074,0.008,0.007,0.0071,0.011,0.011,0.0111,0.0114,0,0,0,0,0,0,-0.0001,0.0003,0.0008,0.0018,0.0022,0.004,0.0035,0.0036,0.0042,0.0042,0.0053,0.0054,0.0058,0.0072,0.0075,0.0081,0.0072,0.0109,0.011,0.0111,0.0113,0.0115,0.0116,0,0,0,0,0,-0.0002,0.0008,0.0008,0.0011,0.0028,0.004,0.0042,0.0046,0.0043,0.0048,0.0054,0.0054,0.0079,0.0073,0.0077,0.0084,0.0109,0.011,0.0111,0.0113,0.0114,0.0116,0,0,0,0,0,0,-0.0001,0.001,0.001,0.0023,0.0031,0.004,0.0047,0.0048,0.0056,0.0056,0.006,0.0063,0.0076,0.0081,0.0075,0.0098,0.0093,0.0095,0.0094,0.0096,0.0097,0.0095,0.0073,0,0,0,0,0,0.0001,0.001,0.0019,0.003,0.0034,0.004,0.0045,0.0047,0.0056,0.0059,0.0065,0.0074,0.0084,0.009,0.0099,0.0114,0.0117,0.0121,0.0122,0.0123,0.0124,0.0133,0.0135,0.0114,0.0114,0.0114,0,0,0.0005,0.0012,0.0017,0.003,0.0036,0.0046,0.0042,0.0052,0.006,0.006,0.0073,0.0079,0.0088,0.0103,0.0109,0.0107,0.013,0.0124,0.0125,0.0126,0.0134,0.0136,0.0138,0.0115,0.0115,0.0115,0,0,0.0017,0.0023,0.0033,0.0039,0.0048,0.0052,0.0055,0.0064,0.0068,0.0081,0.0082,0.0091,0.0108,0.0114,0.012,0.0135,0.0136,0.0138,0.0145,0.0153,0.0155,0.0156,0.0162,0.0164,0.014,0.014,0.014,0,0.0021,0.0035,0.0038,0.0048,0.0054,0.0055,0.0066,0.0072,0.0084,0.0088,0.0086,0.0107,0.0114,0.013,0.0133,0.0138,0.0141,0.0137,0.0154,0.0156,0.0157,0.0162,0.0164,0.014,0.014,0.014,0.014,0,0.0039,0.0049,0.0056,0.0067,0.0074,0.0084,0.009,0.0096,0.0098,0.0102,0.0116,0.0124,0.0135,0.0139,0.0141,0.0156,0.0154,0.0153,0.0149,0.0159,0.0164,0.0166,0.014,0.014,0.014,0.014,0,0,0.0052,0.0065,0.0068,0.0073,0.0084,0.0091,0.0102,0.0113,0.0119,0.0127,0.0136,0.0151,0.015,0.0156,0.0159,0.0166,0.0178,0.0164,0.0164,0.0166,0.0195,0.0196,0.0198,0.0178,0.0179,0.0179,0.0194,0,0.0065,0.0083,0.0087,0.0103,0.0112,0.0114,0.0123,0.0131,0.0136,0.0145,0.015,0.016,0.0158,0.0162,0.0169,0.0175,0.0184,0.0174,0.0187,0.0188,0.0185,0.0201,0.0202,0.0216,0.0196,0.0197,0.0197,0,0.0083,0.0091,0.0108,0.0118,0.0122,0.013,0.0141,0.0149,0.0158,0.0161,0.0169,0.0171,0.0182,0.0177,0.0194,0.0187,0.0193,0.0197,0.0197,0.0199,0.0193,0.0203,0.0221,0.0223,0.02,0.02,0.02,0,0.0091,0.0107,0.0119,0.0123,0.0135,0.0141,0.0146,0.0155,0.0161,0.0171,0.0175,0.0186,0.0191,0.02,0.0205,0.0201,0.0221,0.0217,0.0224,0.0224,0.0228,0.0228,0.0247,0.0232,0.0232,0.0232,0.0232,0,0.0105,0.0115,0.0123,0.013,0.0142,0.0147,0.0158,0.0164,0.0171,0.018,0.0183,0.0191,0.0197,0.0207,0.0211,0.0224,0.0227,0.023,0.0231,0.023,0.0229,0.0233,0.0233,0.0232,0.0232,0.0232,0.0232,0,0.0116,0.0121,0.0135,0.0144,0.0147,0.0156,0.0164,0.0172,0.0177,0.0188,0.0191,0.0199,0.021,0.0216,0.0231,0.0233,0.0248,0.0249,0.0245,0.0245,0.0253,0.0252,0.0275,0.0279,0.0261,0.0261,0.0262,0,0.0125,0.0133,0.0143,0.0149,0.0154,0.0164,0.0171,0.0176,0.0182,0.0194,0.02,0.0212,0.0221,0.0239,0.0246,0.0257,0.0258,0.0266,0.026,0.0259,0.0259,0.0258,0.0259,0.0267,0.0267,0.0267,0.0267,0,0.014,0.0142,0.0151,0.0161,0.0169,0.0177,0.0185,0.019,0.0197,0.0204,0.0216,0.0223,0.0238,0.0249,0.0261,0.0267,0.0268,0.0269,0.0271,0.027,0.0268,0.0269,0.0248,0.0268,0.0268,0.0268,0.0268,0.0268,0.015,0.0157,0.0166,0.0176,0.0183,0.019,0.0198,0.0204,0.0214,0.0226,0.0228,0.024,0.025,0.0266,0.0272,0.0282,0.0281,0.0284,0.0285,0.0286,0.0286,0.0266,0.0284,0.0284,0.0284,0.0284,0.0284,0,0.0165,0.0171,0.018,0.0192,0.02,0.02,0.0209,0.0216,0.0227,0.0235,0.0245,0.0258,0.0269,0.0278,0.0289,0.0296,0.0297,0.0299,0.0298,0.03,0.0287,0.0283,0.0298,0.0298,0.0298,0.0298,0.0298,0.0298,0.0174,0.0186,0.019,0.0206,0.0212,0.0223,0.0229,0.0236,0.0243,0.0258,0.0267,0.0272,0.0281,0.0293,0.0304,0.0306,0.031,0.0312,0.0314,0.0302,0.03,0.0299,0.0296,0.0313,0.0313,0.0326,0.0327,0.0327]},{"header":{"parameterUnit":"m.s-1","parameterCategory":1,"la1":30.2991,"la2":30.254,"lo1":-89.0895,"lo2":-89.0444,"dy":0.0017,"dx":0.0017,"nx":28,"ny":28,"refTime":"2024-10-08T03:00:00:Z","depth":0,"parameterNumber":3,"parameterNumberName":"V-component_of_WINDS"},"data":[0,0,0,0,0,0,0,0,0,0,0,0,0,0,0,0,0,0,0,0,0,0,0,0,0,0,0,0,0,0,0,0,0,0,0,0,0,0,0,0,0,0,0,0,0,0,0,0,0,0,0,0,0,0,0,0,0,0,-3.835,-3.835,0,-3.8368,-3.8368,-3.8368,-3.8343,-3.8342,-3.8341,-3.8341,-3.8356,-3.8357,-3.8359,0,0,0,0,0,0,0,0,0,0,0,0,0,-3.8294,-3.8295,-3.835,-3.835,-3.8351,-3.8368,-3.8368,-3.8369,-3.8343,-3.8342,-3.8341,-3.834,-3.8356,-3.8357,-3.8359,0,0,0,0,0,0,0,0,0,0,0,0,0,-3.8315,-3.8295,-3.835,-3.834,-3.834,-3.8368,-3.8368,-3.8369,-3.8344,-3.8342,-3.8341,-3.834,-3.8355,-3.8357,-3.8359,-3.8397,0,0,-3.8365,-3.8365,0,0,0,0,0,0,0,0,-3.8314,-3.8318,-3.8342,-3.8341,-3.834,-3.8352,-3.8354,-3.8378,-3.8344,-3.8342,-3.8341,-3.8339,-3.8356,-3.8357,-3.8364,-3.8398,-3.8398,-3.8365,-3.8366,-3.8367,-3.8367,0,0,0,0,0,0,0,-3.8313,-3.8317,-3.8357,-3.8342,-3.8341,-3.8335,-3.8336,-3.8358,-3.8356,-3.8342,-3.834,-3.8343,-3.8355,-3.8362,-3.8364,-3.8399,-3.8365,-3.8366,-3.8368,-3.8368,-3.8468,-3.847,0,0,0,0,0,0,-3.8313,-3.8316,-3.8357,-3.8358,-3.8324,-3.8337,-3.8339,-3.835,-3.8356,-3.8355,-3.8344,-3.8342,-3.8359,-3.8362,-3.8364,-3.8412,-3.8367,-3.8368,-3.837,-3.8467,-3.8469,-3.847,0,0,0,0,0,0,-3.8312,-3.8317,-3.8356,-3.8336,-3.8341,-3.8339,-3.8352,-3.8351,-3.8357,-3.8357,-3.8356,-3.8352,-3.8358,-3.8362,-3.839,-3.8412,-3.8369,-3.8371,-3.8465,-3.8467,-3.847,-3.8506,0,0,0,0,0,0,-3.831,-3.8316,-3.8331,-3.8337,-3.8342,-3.8382,-3.8353,-3.8352,-3.8361,-3.8358,-3.8364,-3.8364,-3.8358,-3.8387,-3.8392,-3.8414,-3.8372,-3.8463,-3.8466,-3.8469,-3.8503,-3.8509,-3.8515,0,0,0,0,0,-3.8308,-3.8339,-3.8332,-3.8337,-3.836,-3.8383,-3.8386,-3.8379,-3.8363,-3.8378,-3.8378,-3.8364,-3.8409,-3.8391,-3.8395,-3.8418,-3.8462,-3.8465,-3.8469,-3.85,-3.8508,-3.8514,0,0,0,0,0,0,-3.8333,-3.8339,-3.8331,-3.8365,-3.8374,-3.8379,-3.8397,-3.8387,-3.84,-3.8396,-3.8386,-3.8388,-3.8419,-3.8421,-3.8401,-3.8457,-3.8432,-3.8437,-3.8455,-3.8462,-3.8468,-3.8467,-3.8374,0,0,0,0,0,-3.8343,-3.8362,-3.8366,-3.8395,-3.84,-3.8398,-3.8408,-3.8402,-3.841,-3.8414,-3.8416,-3.8424,-3.844,-3.8451,-3.8465,-3.8503,-3.8505,-3.8521,-3.8527,-3.8532,-3.8536,-3.8559,-3.8567,-3.8482,-3.8482,-3.8482,0,0,-3.8363,-3.8369,-3.8381,-3.8401,-3.8407,-3.8427,-3.8401,-3.8422,-3.8437,-3.8416,-3.8445,-3.8447,-3.8455,-3.8489,-3.8504,-3.8491,-3.856,-3.8536,-3.854,-3.8542,-3.8563,-3.8571,-3.8578,-3.8484,-3.8484,-3.8483,0,0,-3.841,-3.8415,-3.8442,-3.845,-3.846,-3.8459,-3.8466,-3.8473,-3.8474,-3.8502,-3.8488,-3.8505,-3.8532,-3.854,-3.8548,-3.8601,-3.8589,-3.8606,-3.8637,-3.866,-3.8666,-3.8672,-3.8694,-3.8701,-3.861,-3.861,-3.861,0,-3.8433,-3.8463,-3.8457,-3.8481,-3.8491,-3.8474,-3.8502,-3.8509,-3.8523,-3.8531,-3.8517,-3.8554,-3.8558,-3.8595,-3.8608,-3.8614,-3.8622,-3.8606,-3.8666,-3.8672,-3.8677,-3.8698,-3.8705,-3.8612,-3.8612,-3.8612,-3.8612,0,-3.8493,-3.8514,-3.8534,-3.8551,-3.8563,-3.8588,-3.8586,-3.8599,-3.8593,-3.8593,-3.8624,-3.8629,-3.8646,-3.8654,-3.8646,-3.869,-3.8683,-3.8668,-3.8643,-3.8688,-3.8707,-3.8714,-3.8615,-3.8615,-3.8614,-3.8613,0,0,-3.8555,-3.8571,-3.8578,-3.8587,-3.8599,-3.8615,-3.864,-3.8659,-3.8671,-3.8682,-3.8704,-3.8729,-3.8716,-3.8725,-3.8719,-3.8738,-3.8783,-3.8721,-3.8721,-3.8734,-3.8835,-3.8848,-3.8857,-3.8775,-3.8776,-3.8778,-3.8835,0,-3.8604,-3.865,-3.8646,-3.8689,-3.871,-3.8696,-3.8718,-3.8728,-3.873,-3.8748,-3.8749,-3.8768,-3.8748,-3.8754,-3.8772,-3.8774,-3.8804,-3.8769,-3.8796,-3.8797,-3.8797,-3.8866,-3.8879,-3.8933,-3.8842,-3.8843,-3.8844,0,-3.8667,-3.8683,-3.8729,-3.8741,-3.875,-3.877,-3.8788,-3.8805,-3.8816,-3.8816,-3.8828,-3.8819,-3.8845,-3.882,-3.8857,-3.8834,-3.8845,-3.8847,-3.8849,-3.8853,-3.8825,-3.8873,-3.8949,-3.8958,-3.8855,-3.8854,-3.8853,0,-3.8712,-3.8744,-3.8777,-3.8785,-3.8798,-3.8814,-3.882,-3.883,-3.8842,-3.8858,-3.8866,-3.8883,-3.8893,-3.8907,-3.8904,-3.8885,-3.8943,-3.8916,-3.8944,-3.8945,-3.8958,-3.8957,-3.9039,-3.8962,-3.8962,-3.8961,-3.8961,0,-3.8768,-3.8797,-3.8798,-3.8818,-3.8851,-3.8846,-3.8879,-3.8883,-3.8893,-3.8914,-3.8902,-3.8922,-3.8915,-3.8935,-3.8932,-3.8965,-3.8969,-3.897,-3.897,-3.8973,-3.8973,-3.898,-3.8977,-3.8964,-3.8963,-3.8963,-3.8962,0,-3.8823,-3.8824,-3.886,-3.8871,-3.8875,-3.8899,-3.8908,-3.8928,-3.8929,-3.8956,-3.8962,-3.8964,-3.8987,-3.8985,-3.901,-3.9009,-3.905,-3.9043,-3.9047,-3.9046,-3.9075,-3.9073,-3.9166,-3.9179,-3.9091,-3.9092,-3.9093,0,-3.886,-3.8882,-3.8897,-3.8912,-3.892,-3.8942,-3.8956,-3.8952,-3.8967,-3.8983,-3.9001,-3.9024,-3.9041,-3.9079,-3.9082,-3.9102,-3.9097,-3.9128,-3.91,-3.9104,-3.9101,-3.91,-3.9104,-3.9134,-3.9135,-3.9136,-3.9137,0,-3.8926,-3.8926,-3.8946,-3.8968,-3.8985,-3.9002,-3.9016,-3.9029,-3.9027,-3.9044,-3.9068,-3.9082,-3.911,-3.9133,-3.9152,-3.9158,-3.9148,-3.9146,-3.9154,-3.9158,-3.916,-3.9162,-3.9064,-3.9144,-3.9143,-3.9143,-3.9142,-3.9142,-3.8974,-3.8995,-3.901,-3.9034,-3.9046,-3.9061,-3.9081,-3.9086,-3.9107,-3.913,-3.9126,-3.9155,-3.9168,-3.9193,-3.9201,-3.9223,-3.9212,-3.9223,-3.9226,-3.9229,-3.9234,-3.9155,-3.9226,-3.9226,-3.9226,-3.9226,-3.9226,0,-3.9042,-3.9052,-3.9074,-3.9097,-3.9116,-3.9106,-3.9123,-3.914,-3.9165,-3.9179,-3.9198,-3.9227,-3.925,-3.9256,-3.9278,-3.9295,-3.9291,-3.9301,-3.9301,-3.9303,-3.9241,-3.9234,-3.9304,-3.9304,-3.9304,-3.9304,-3.9304,-3.9304,-3.9079,-3.9116,-3.9118,-3.916,-3.9169,-3.9198,-3.9209,-3.9224,-3.9235,-3.9269,-3.9289,-3.9293,-3.9305,-3.9328,-3.9349,-3.935,-3.936,-3.9372,-3.9372,-3.9315,-3.9307,-3.9299,-3.9292,-3.9374,-3.9374,-3.9432,-3.9432,-3.9433]}]]